When you browse on this site, cookies collect data to enhance your experience and personalize the content and advertising you see.
Visit our Privacy Policy to learn more. By continuing to use the site, you agree to this use of cookies and data.
  • en Suisse
  • Liste des pays
  • À 7 jours
  • Température de l'eau
  • Carte satellitaire
  • Carte météo
  • Widgets météo
  • user-avatar
    Se connecter

    Météo par heure à Nizhnie Balmazy

    Ce jour, 19 Mai, Dimanche

    Heure Température Précipitation Vent Pression Humidité
    00:00 +2°C° 0 mm 3 m/s 739 mmHg 81%
    01:00 +2°C° 0 mm 2 m/s 739 mmHg 83%
    02:00 +2°C° 0 mm 2 m/s 739 mmHg 84%
    03:00 +1°C° 0 mm 3 m/s 739 mmHg 85%
    04:00 +1°C° 0 mm 2 m/s 739 mmHg 86%
    05:00 +1°C° 0 mm 3 m/s 739 mmHg 82%
    06:00 +2°C° 0 mm 3 m/s 739 mmHg 78%
    07:00 +3°C° 0 mm 4 m/s 739 mmHg 73%
    08:00 +4°C° 0.2 mm 4 m/s 739 mmHg 68%
    09:00 +5°C° 0.2 mm 4 m/s 739 mmHg 62%
    10:00 +6°C° 0.2 mm 5 m/s 739 mmHg 57%
    11:00 +6°C° 0.3 mm 5 m/s 739 mmHg 55%
    12:00 +7°C° 0.3 mm 5 m/s 739 mmHg 53%
    13:00 +7°C° 0.3 mm 5 m/s 739 mmHg 51%
    14:00 +7°C° 0.3 mm 5 m/s 739 mmHg 53%
    15:00 +7°C° 0.3 mm 4 m/s 739 mmHg 55%
    16:00 +7°C° 0.3 mm 4 m/s 739 mmHg 57%
    17:00 +6°C° 0.2 mm 4 m/s 740 mmHg 62%
    18:00 +7°C° 0.2 mm 3 m/s 740 mmHg 67%
    19:00 +6°C° 0.2 mm 2 m/s 740 mmHg 73%
    20:00 +5°C° 0 mm 2 m/s 740 mmHg 79%
    21:00 +3°C° 0 mm 2 m/s 741 mmHg 84%
    22:00 +2°C° 0 mm 2 m/s 741 mmHg 90%
    23:00 +2°C° 0 mm 2 m/s 741 mmHg 92%

    Demain, 20 Mai, Lundi

    Heure Température Précipitation Vent Pression Humidité
    00:00 +1°C° 0 mm 2 m/s 741 mmHg 93%
    01:00 +1°C° 0 mm 2 m/s 741 mmHg 95%
    02:00 -1°C° 0 mm 2 m/s 741 mmHg 95%
    03:00 -1°C° 0 mm 2 m/s 742 mmHg 96%
    04:00 -1°C° 0 mm 2 m/s 742 mmHg 97%
    05:00 +1°C° 0 mm 2 m/s 742 mmHg 94%
    06:00 +1°C° 0 mm 3 m/s 742 mmHg 91%
    07:00 +3°C° 0 mm 3 m/s 742 mmHg 88%
    08:00 +3°C° 0.1 mm 4 m/s 742 mmHg 86%
    09:00 +4°C° 0.1 mm 4 m/s 742 mmHg 84%
    10:00 +5°C° 0.1 mm 5 m/s 742 mmHg 83%
    11:00 +5°C° 0.2 mm 4 m/s 742 mmHg 80%
    12:00 +6°C° 0.2 mm 4 m/s 742 mmHg 77%
    13:00 +7°C° 0.2 mm 4 m/s 742 mmHg 74%
    14:00 +7°C° 0.3 mm 4 m/s 743 mmHg 70%
    15:00 +8°C° 0.3 mm 4 m/s 743 mmHg 66%
    16:00 +10°C° 0.3 mm 4 m/s 743 mmHg 62%
    17:00 +9°C° 0.1 mm 3 m/s 743 mmHg 66%
    18:00 +9°C° 0.1 mm 3 m/s 743 mmHg 69%
    19:00 +8°C° 0.1 mm 2 m/s 743 mmHg 73%
    20:00 +6°C° 0 mm 2 m/s 743 mmHg 78%
    21:00 +5°C° 0 mm 2 m/s 744 mmHg 82%
    22:00 +3°C° 0 mm 2 m/s 744 mmHg 87%
    23:00 +3°C° 0 mm 2 m/s 744 mmHg 88%

    Après-demain, 21 Mai, Mardi

    Heure Température Précipitation Vent Pression Humidité
    00:00 +2°C° 0 mm 2 m/s 744 mmHg 89%
    01:00 +2°C° 0 mm 2 m/s 744 mmHg 91%
    02:00 +1°C° 0 mm 2 m/s 745 mmHg 91%
    03:00 +2°C° 0 mm 1 m/s 745 mmHg 92%
    04:00 +1°C° 0 mm 1 m/s 745 mmHg 92%
    05:00 +2°C° 0 mm 2 m/s 745 mmHg 85%
    06:00 +4°C° 0 mm 2 m/s 745 mmHg 77%
    07:00 +5°C° 0 mm 2 m/s 746 mmHg 70%
    08:00 +7°C° 0 mm 3 m/s 746 mmHg 62%
    09:00 +8°C° 0 mm 4 m/s 746 mmHg 53%
    10:00 +9°C° 0 mm 5 m/s 746 mmHg 45%
    11:00 +10°C° 0 mm 5 m/s 746 mmHg 44%
    12:00 +10°C° 0 mm 5 m/s 746 mmHg 43%
    13:00 +12°C° 0 mm 5 m/s 745 mmHg 42%
    14:00 +12°C° 0 mm 5 m/s 746 mmHg 42%
    15:00 +12°C° 0 mm 5 m/s 746 mmHg 42%
    16:00 +12°C° 0 mm 5 m/s 746 mmHg 43%
    17:00 +12°C° 0 mm 4 m/s 746 mmHg 47%
    18:00 +11°C° 0 mm 4 m/s 746 mmHg 51%
    19:00 +10°C° 0 mm 3 m/s 746 mmHg 55%
    20:00 +9°C° 0 mm 2 m/s 746 mmHg 60%
    21:00 +7°C° 0 mm 2 m/s 746 mmHg 65%
    22:00 +5°C° 0 mm 2 m/s 746 mmHg 70%
    23:00 +5°C° 0 mm 2 m/s 746 mmHg 72%

    22 Mai, Mercredi

    Heure Température Précipitation Vent Pression Humidité
    00:00 +5°C° 0 mm 1 m/s 746 mmHg 74%
    01:00 +4°C° 0 mm 1 m/s 746 mmHg 77%
    02:00 +4°C° 0 mm 1 m/s 746 mmHg 78%
    03:00 +4°C° 0 mm 1 m/s 746 mmHg 79%
    04:00 +3°C° 0 mm 1 m/s 746 mmHg 80%
    05:00 +5°C° 0 mm 1 m/s 746 mmHg 74%
    06:00 +7°C° 0 mm 1 m/s 747 mmHg 67%
    07:00 +8°C° 0 mm 2 m/s 747 mmHg 60%
    08:00 +10°C° 0 mm 2 m/s 747 mmHg 53%
    09:00 +11°C° 0 mm 3 m/s 746 mmHg 47%
    10:00 +13°C° 0 mm 3 m/s 746 mmHg 41%
    11:00 +14°C° 0 mm 4 m/s 746 mmHg 39%
    12:00 +14°C° 0 mm 4 m/s 746 mmHg 38%
    13:00 +15°C° 0 mm 4 m/s 746 mmHg 37%
    14:00 +15°C° 0 mm 4 m/s 746 mmHg 38%
    15:00 +15°C° 0 mm 4 m/s 746 mmHg 39%
    16:00 +15°C° 0 mm 4 m/s 745 mmHg 39%
    17:00 +14°C° 0 mm 3 m/s 745 mmHg 45%
    18:00 +14°C° 0 mm 2 m/s 745 mmHg 50%
    19:00 +13°C° 0 mm 1 m/s 745 mmHg 55%
    20:00 +12°C° 0 mm 1 m/s 745 mmHg 59%
    21:00 +10°C° 0 mm 2 m/s 745 mmHg 63%
    22:00 +9°C° 0 mm 2 m/s 745 mmHg 67%
    23:00 +8°C° 0 mm 2 m/s 745 mmHg 70%

    23 Mai, Jeudi

    Heure Température Précipitation Vent Pression Humidité
    00:00 +7°C° 0 mm 2 m/s 745 mmHg 74%
    01:00 +6°C° 0 mm 2 m/s 744 mmHg 78%
    02:00 +6°C° 0 mm 2 m/s 744 mmHg 80%
    03:00 +6°C° 0 mm 2 m/s 744 mmHg 81%
    04:00 +6°C° 0 mm 2 m/s 743 mmHg 83%
    05:00 +7°C° 0.1 mm 3 m/s 743 mmHg 84%
    06:00 +9°C° 0.1 mm 3 m/s 742 mmHg 85%
    07:00 +10°C° 0.1 mm 4 m/s 741 mmHg 86%
    08:00 +10°C° 0.6 mm 4 m/s 740 mmHg 88%
    09:00 +10°C° 0.6 mm 4 m/s 740 mmHg 91%
    10:00 +10°C° 0.6 mm 4 m/s 739 mmHg 94%
    11:00 +10°C° 0.7 mm 5 m/s 738 mmHg 94%
    12:00 +12°C° 0.7 mm 5 m/s 738 mmHg 93%
    13:00 +14°C° 0.7 mm 6 m/s 737 mmHg 93%
    14:00 +14°C° 2.4 mm 5 m/s 737 mmHg 94%
    15:00 +14°C° 2.4 mm 5 m/s 737 mmHg 94%
    16:00 +14°C° 2.4 mm 5 m/s 736 mmHg 95%
    17:00 +14°C° 2.9 mm 4 m/s 736 mmHg 96%
    18:00 +14°C° 2.9 mm 4 m/s 736 mmHg 96%
    19:00 +14°C° 2.9 mm 4 m/s 736 mmHg 97%
    20:00 +14°C° 2.2 mm 4 m/s 736 mmHg 97%
    21:00 +13°C° 2.2 mm 3 m/s 736 mmHg 97%
    22:00 +13°C° 2.2 mm 3 m/s 736 mmHg 98%
    23:00 +12°C° 4 mm 3 m/s 737 mmHg 97%

    24 Mai, Vendredi

    Heure Température Précipitation Vent Pression Humidité
    00:00 +11°C° 4 mm 3 m/s 737 mmHg 97%
    01:00 +11°C° 4 mm 3 m/s 737 mmHg 96%
    02:00 +9°C° 1.9 mm 3 m/s 738 mmHg 95%
    03:00 +8°C° 1.9 mm 3 m/s 739 mmHg 94%
    04:00 +5°C° 1.9 mm 3 m/s 739 mmHg 93%
    05:00 +5°C° 1 mm 3 m/s 740 mmHg 92%
    06:00 +5°C° 1 mm 2 m/s 740 mmHg 91%
    07:00 +5°C° 1 mm 2 m/s 740 mmHg 91%
    08:00 +5°C° 0.7 mm 2 m/s 740 mmHg 90%
    09:00 +5°C° 0.7 mm 2 m/s 741 mmHg 89%
    10:00 +5°C° 0.7 mm 2 m/s 741 mmHg 88%
    11:00 +6°C° 0.3 mm 1 m/s 741 mmHg 87%
    12:00 +7°C° 0.3 mm 1 m/s 741 mmHg 85%
    13:00 +7°C° 0.3 mm 1 m/s 740 mmHg 83%
    14:00 +7°C° 0.6 mm 1 m/s 740 mmHg 84%
    15:00 +7°C° 0.6 mm 1 m/s 740 mmHg 85%
    16:00 +7°C° 0.6 mm 1 m/s 740 mmHg 86%
    17:00 +7°C° 0.2 mm 1 m/s 740 mmHg 86%
    18:00 +7°C° 0.2 mm 1 m/s 740 mmHg 87%
    19:00 +6°C° 0.2 mm 0 m/s 740 mmHg 87%
    20:00 +6°C° 0.2 mm 0 m/s 740 mmHg 87%
    21:00 +5°C° 0.2 mm 0 m/s 741 mmHg 88%
    22:00 +5°C° 0.2 mm 0 m/s 741 mmHg 88%
    23:00 +4°C° 0 mm 0 m/s 741 mmHg 88%
    Voir plus